This is the latest recevied weather packets stored in our database for station/object KB8SSH. If no packets are shown the sender has not sent any weather packets the latest 10 day(s).
| Time | Temp. | Humidity | Pressure | Rain* | Wind** | Luminosity | Snow |
|---|---|---|---|---|---|---|---|
| 1777904322 | 16.11° C | 63% | 1042.9 hPa | 0 mm | - | 75 W/m² | - |
| 1777904019 | 16.11° C | 63% | 1042.9 hPa | 0 mm | - | 65 W/m² | - |
| 1777903716 | 15.56° C | 63% | 1042.6 hPa | 0 mm | - | 119 W/m² | - |
| 1777903411 | 15.56° C | 64% | 1042.9 hPa | 0 mm | - | 52 W/m² | - |
| 1777903108 | 15° C | 64% | 1042.9 hPa | 0 mm | - | 53 W/m² | - |
| 1777902804 | 15° C | 65% | 1043.2 hPa | 0 mm | - | 53 W/m² | - |
| 1777902502 | 15° C | 65% | 1043.2 hPa | 0 mm | - | 77 W/m² | - |
| 1777902199 | 14.44° C | 65% | 1043.6 hPa | 0 mm | - | 99 W/m² | - |
| 1777901897 | 14.44° C | 65% | 1043.6 hPa | 0 mm | - | 82 W/m² | - |
| 1777901594 | 14.44° C | 65% | 1043.2 hPa | 0 mm | - | 101 W/m² | - |
| 1777901291 | 13.89° C | 65% | 1043.6 hPa | 0 mm | - | 92 W/m² | - |
| 1777900989 | 13.89° C | 65% | 1043.6 hPa | 0 mm | - | 89 W/m² | - |
| 1777900687 | 13.89° C | 65% | 1043.6 hPa | 0 mm | - | 104 W/m² | - |
| 1777900383 | 13.89° C | 65% | 1043.6 hPa | 0 mm | - | 69 W/m² | - |
| 1777900080 | 13.89° C | 65% | 1043.6 hPa | 0 mm | - | 99 W/m² | - |
| 1777899776 | 13.33° C | 66% | 1043.2 hPa | 0 mm | - | 74 W/m² | - |
| 1777899473 | 13.33° C | 66% | 1043.2 hPa | 0 mm | - | 96 W/m² | - |
| 1777899171 | 12.78° C | 66% | 1043.6 hPa | 0 mm | - | 62 W/m² | - |
| 1777898869 | 12.78° C | 67% | 1043.2 hPa | 0 mm | - | 51 W/m² | - |
| 1777898566 | 12.78° C | 67% | 1043.6 hPa | 0 mm | - | 46 W/m² | - |
| 1777898263 | 12.22° C | 68% | 1043.6 hPa | 0 mm | - | 43 W/m² | - |
| 1777897960 | 12.22° C | 68% | 1043.6 hPa | 0 mm | - | 39 W/m² | - |
| 1777897656 | 12.22° C | 68% | 1043.6 hPa | 0 mm | - | 46 W/m² | - |
| 1777897353 | 11.67° C | 68% | 1043.6 hPa | 0 mm | - | 40 W/m² | - |
| 1777897048 | 11.67° C | 69% | 1043.6 hPa | 0 mm | - | 51 W/m² | - |
* Rain latest hour (hover to see other rain measurements)
** Current wind speed in m/s (hover to see current wind gust speed)